Regional Weather Roundup
Issued by NWS

Home | Current Version | Previous Version | Graphics & Text | Print | Product List | Glossary On
Versions: 1 2 3 4 5 6 7 8 9 10 11 12 13 14 15 16 17 18 19 20 21 22 23 24 25 26 27
000
ASUS45 KCYS 161010
RWRWY

WYOMING REGIONAL WEATHER ROUNDUP
NATIONAL WEATHER SERVICE CHEYENNE WY
400 AM MDT MON OCT 16 2017

NOTE:  "FAIR" INDICATES FEW OR NO CLOUDS BELOW 12,000 FEET
WITH NO SIGNIFICANT WEATHER AND/OR OBSTRUCTIONS TO VISIBILITY.

WYZ001-161100-
YELLOWSTONE NATIONAL PARK

CITY           SKY/WX    TMP DP  RH WIND       PRES   REMARKS
LK YELLOWSTONE   N/A     21  21 100 CALM      30.43F
W YELLOWSTONE  NOT AVBL

$$
WYZ002>013-054>058-071-098>099-161100-
NORTHERN WYOMING

CITY           SKY/WX    TMP DP  RH WIND       PRES   REMARKS
JACKSON        FAIR      21  19  92 NE5       30.44F WCI  15
CODY           FAIR      53  20  27 W5        30.24F
GREYBULL       FAIR      32  25  75 CALM      30.24S
WORLAND        FAIR      32  29  88 SW5       30.23S WCI  27
SHERIDAN       FAIR      33  27  78 CALM      30.14F
BUFFALO        FAIR      45  17  32 W9        30.19F
GILLETTE       FAIR      45  26  47 VRB3      30.17F
HULETT         FAIR      41  27  56 SW5       30.18F
NEWCASTLE      FAIR      32  27  80 CALM      30.24S

$$
WYZ014>020-022>026-101>103-161100-
CENTRAL WYOMING

CITY           SKY/WX    TMP DP  RH WIND       PRES   REMARKS
BIG PINEY      FAIR      16  13  88 NE5       30.43F WCI   9
PINEDALE       FAIR      19  19 100 NW7       30.44F WCI  10
DUBOIS         FAIR      36  18  48 NW20G26   30.33F WCI  25
LANDER         FAIR      38  28  67 SW3       30.28S
RIVERTON       FAIR      38  29  70 W7        30.28F WCI  33
CASPER         FAIR      45  17  32 SW15      30.26F
DOUGLAS        FAIR      26  22  84 S6        30.25F WCI  19

$$
WYZ021-027>030-104>119-161100-
SOUTHERN WYOMING

CITY           SKY/WX    TMP DP  RH WIND       PRES   REMARKS
EVANSTON       FAIR      36  15  42 S8        30.44F WCI  30
KEMMERER       FAIR      32  14  47 NW12      30.44F WCI  23
FORT BRIDGER   FAIR      39   9  29 W9        30.46S WCI  33
ROCK SPRINGS   FAIR      35  10  35 CALM      30.42F
DIXON          FAIR      27  19  70 CALM      30.47S
RAWLINS        FAIR      40  10  29 CALM      30.39S
SARATOGA       FAIR      32  18  55 S12G21    30.41F WCI  23
LARAMIE        FAIR      39  11  31 SW12      30.38F WCI  32
CHEYENNE       FAIR      39  18  42 S9        30.33F WCI  33
TORRINGTON     FAIR      30  24  78 CALM      30.25F
PINE BLUFFS    FAIR      30  23  74 MISG      30.32F

$$




USA.gov is the U.S. government's official web portal to all federal, state and local government web resources and services.